| time (UTC) | temp F | wind direction | speed MPH | gust MPH | rain 1hr in | rain 24hr in | rain mn in | humidity % | barometer mb |
| 20260510142003 | 56 | 328 | 4.0 | 11.0 | 0.10 | 0.10 | 0.10 | 82 | 1011.6 |
| 20260510141503 | 56 | 316 | 6.0 | 11.0 | 0.09 | 0.09 | 0.09 | 79 | 1011.6 |
| 20260510141017 | 57 | 298 | 6.0 | 14.0 | 0.09 | 0.09 | 0.09 | 79 | 1011.7 |
| 20260510140503 | 58 | 258 | 7.0 | 15.0 | 0.08 | 0.08 | 0.08 | 79 | 1011.7 |
| 20260510140017 | 60 | 230 | 5.0 | 15.0 | 0.07 | 0.07 | 0.07 | 77 | 1011.5 |
| 20260510135517 | 62 | 212 | 3.0 | 15.0 | 0.04 | 0.04 | 0.04 | 75 | 1011.2 |
| 20260510135003 | 63 | 250 | 2.0 | 8.0 | 0.00 | 0.00 | 0.00 | 73 | 1011.1 |
| 20260510134503 | 64 | 312 | 1.0 | 7.0 | 0.00 | 0.00 | 0.00 | 70 | 1010.8 |
| 20260510134018 | 65 | 347 | 1.0 | 4.0 | 0.00 | 0.00 | 0.00 | 69 | 1010.2 |
| 20260510133503 | 65 | 75 | 1.0 | 4.0 | 0.00 | 0.00 | 0.00 | 69 | 1009.8 |
| 20260510133003 | 65 | 89 | 2.0 | 6.0 | 0.00 | 0.00 | 0.00 | 69 | 1009.7 |
| 20260510132503 | 66 | 78 | 2.0 | 6.0 | 0.00 | 0.00 | 0.00 | 68 | 1009.3 |
| 20260510132017 | 66 | 30 | 2.0 | 4.0 | 0.00 | 0.00 | 0.00 | 67 | 1009.1 |
| 20260510131503 | 66 | 20 | 2.0 | 6.0 | 0.00 | 0.00 | 0.00 | 67 | 1009.0 |
| 20260510131006 | 66 | 91 | 2.0 | 6.0 | 0.00 | 0.00 | 0.00 | 66 | 1008.9 |
| 20260510130503 | 67 | 98 | 2.0 | 3.0 | 0.00 | 0.00 | 0.00 | 64 | 1008.9 |
| 20260510130003 | 67 | 147 | 2.0 | 4.0 | 0.00 | 0.00 | 0.00 | 64 | 1008.8 |
| 20260510125503 | 67 | 189 | 2.0 | 5.0 | 0.00 | 0.00 | 0.00 | 64 | 1008.8 |
| 20260510125003 | 67 | 122 | 1.0 | 5.0 | 0.00 | 0.00 | 0.00 | 61 | 1008.7 |
| 20260510124503 | 68 | 77 | 1.0 | 4.0 | 0.00 | 0.00 | 0.00 | 60 | 1008.8 |
| 20260510124003 | 68 | 77 | 1.0 | 4.0 | 0.00 | 0.00 | 0.00 | 58 | 1008.9 |
| 20260510123003 | 68 | 83 | 1.0 | 3.0 | 0.00 | 0.00 | 0.00 | 57 | 1008.9 |
| 20260510122503 | 68 | 46 | 1.0 | 4.0 | 0.00 | 0.00 | 0.00 | 56 | 1009.0 |
| 20260510122003 | 68 | 76 | 1.0 | 4.0 | 0.00 | 0.00 | 0.00 | 55 | 1009.0 |
| 20260510121503 | 68 | 99 | 2.0 | 4.0 | 0.00 | 0.00 | 0.00 | 53 | 1008.9 |
| 20260510121003 | 69 | 100 | 2.0 | 4.0 | 0.00 | 0.00 | 0.00 | 53 | 1009.1 |
| 20260510120517 | 70 | 76 | 2.0 | 6.0 | 0.00 | 0.00 | 0.00 | 51 | 1009.2 |
| 20260510120003 | 70 | 317 | 3.0 | 7.0 | 0.00 | 0.00 | 0.00 | 49 | 1009.3 |
| 20260510115503 | 70 | 306 | 3.0 | 8.0 | 0.00 | 0.00 | 0.00 | 49 | 1009.2 |
| 20260510115003 | 70 | 312 | 4.0 | 11.0 | 0.00 | 0.00 | 0.00 | 48 | 1009.1 |
| 20260510114503 | 70 | 311 | 5.0 | 11.0 | 0.00 | 0.00 | 0.00 | 52 | 1009.3 |
| 20260510114017 | 70 | 307 | 4.0 | 10.0 | 0.00 | 0.00 | 0.00 | 51 | 1009.3 |
| 20260510113503 | 71 | 309 | 4.0 | 10.0 | 0.00 | 0.00 | 0.00 | 49 | 1009.4 |
| 20260510113003 | 70 | 311 | 3.0 | 8.0 | 0.00 | 0.00 | 0.00 | 49 | 1009.4 |
| 20260510112503 | 70 | 292 | 3.0 | 8.0 | 0.00 | 0.00 | 0.00 | 50 | 1009.5 |
| 20260510112003 | 71 | 230 | 3.0 | 8.0 | 0.00 | 0.00 | 0.00 | 47 | 1009.5 |
| 20260510111503 | 70 | 186 | 4.0 | 8.0 | 0.00 | 0.00 | 0.00 | 47 | 1009.5 |
| 20260510111003 | 70 | 188 | 4.0 | 9.0 | 0.00 | 0.00 | 0.00 | 46 | 1009.7 |
| 20260510110503 | 70 | 205 | 4.0 | 9.0 | 0.00 | 0.00 | 0.00 | 46 | 1009.9 |
| 20260510110003 | 70 | 181 | 5.0 | 11.0 | 0.00 | 0.00 | 0.00 | 47 | 1009.9 |
| 20260510105503 | 71 | 169 | 5.0 | 11.0 | 0.00 | 0.00 | 0.00 | 45 | 1010.0 |
| 20260510105003 | 70 | 177 | 6.0 | 13.0 | 0.00 | 0.00 | 0.00 | 47 | 1010.1 |
| 20260510104517 | 69 | 177 | 7.0 | 13.0 | 0.00 | 0.00 | 0.00 | 48 | 1010.1 |
| 20260510104017 | 69 | 178 | 7.0 | 17.0 | 0.00 | 0.00 | 0.00 | 48 | 1010.2 |
| 20260510103503 | 69 | 178 | 8.0 | 17.0 | 0.00 | 0.00 | 0.00 | 47 | 1010.3 |
| 20260510103003 | 69 | 179 | 7.0 | 16.0 | 0.00 | 0.00 | 0.00 | 48 | 1010.2 |
| 20260510102503 | 70 | 173 | 7.0 | 16.0 | 0.00 | 0.00 | 0.00 | 48 | 1010.2 |
| 20260510102017 | 69 | 183 | 6.0 | 16.0 | 0.00 | 0.00 | 0.00 | 47 | 1010.3 |
| 20260510101503 | 69 | 215 | 3.0 | 11.0 | 0.00 | 0.00 | 0.00 | 49 | 1010.2 |
| 20260510101003 | 69 | 208 | 3.0 | 8.0 | 0.00 | 0.00 | 0.00 | 49 | 1010.4 |
| 20260510100503 | 69 | 184 | 2.0 | 8.0 | 0.00 | 0.00 | 0.00 | 52 | 1010.3 |
| 20260510100003 | 68 | 219 | 3.0 | 8.0 | 0.00 | 0.00 | 0.00 | 51 | 1010.1 |
| 20260510095503 | 68 | 174 | 5.0 | 14.0 | 0.00 | 0.00 | 0.00 | 52 | 1010.2 |
| 20260510095003 | 68 | 162 | 7.0 | 14.0 | 0.00 | 0.00 | 0.00 | 51 | 1010.2 |
| 20260510094503 | 68 | 172 | 7.0 | 14.0 | 0.00 | 0.00 | 0.00 | 49 | 1010.2 |
| 20260510094003 | 68 | 178 | 5.0 | 14.0 | 0.00 | 0.00 | 0.00 | 50 | 1010.3 |
| 20260510093503 | 68 | 181 | 4.0 | 10.0 | 0.00 | 0.00 | 0.00 | 49 | 1010.3 |
| 20260510093017 | 68 | 193 | 4.0 | 11.0 | 0.00 | 0.00 | 0.00 | 51 | 1010.3 |
| 20260510092517 | 68 | 180 | 5.0 | 13.0 | 0.00 | 0.00 | 0.00 | 49 | 1010.3 |
| 20260510092003 | 68 | 188 | 6.0 | 13.0 | 0.00 | 0.00 | 0.00 | 50 | 1010.4 |
| 20260510091503 | 68 | 200 | 5.0 | 9.0 | 0.00 | 0.00 | 0.00 | 50 | 1010.5 |
| 20260510091003 | 68 | 209 | 5.0 | 10.0 | 0.00 | 0.00 | 0.00 | 51 | 1010.4 |
| 20260510090517 | 68 | 195 | 6.0 | 12.0 | 0.00 | 0.00 | 0.00 | 51 | 1010.4 |
| 20260510090003 | 67 | 174 | 6.0 | 13.0 | 0.00 | 0.00 | 0.00 | 51 | 1010.5 |
| 20260510085503 | 67 | 182 | 6.0 | 13.0 | 0.00 | 0.00 | 0.00 | 51 | 1010.5 |
| 20260510085003 | 68 | 192 | 5.0 | 13.0 | 0.00 | 0.00 | 0.00 | 51 | 1010.4 |
| 20260510084503 | 67 | 175 | 6.0 | 14.0 | 0.00 | 0.00 | 0.00 | 51 | 1010.7 |
| 20260510084003 | 67 | 180 | 7.0 | 14.0 | 0.00 | 0.00 | 0.00 | 53 | 1010.5 |
| 20260510083503 | 66 | 193 | 6.0 | 13.0 | 0.00 | 0.00 | 0.00 | 53 | 1010.4 |
| 20260510083003 | 66 | 188 | 5.0 | 12.0 | 0.00 | 0.00 | 0.00 | 54 | 1010.4 |
| 20260510082503 | 66 | 173 | 5.0 | 14.0 | 0.00 | 0.00 | 0.00 | 54 | 1010.3 |
| 20260510082003 | 66 | 177 | 5.0 | 14.0 | 0.00 | 0.00 | 0.00 | 54 | 1010.4 |
| 20260510081503 | 65 | 176 | 4.0 | 10.0 | 0.00 | 0.00 | 0.00 | 55 | 1010.4 |
| 20260510081003 | 65 | 181 | 5.0 | 10.0 | 0.00 | 0.00 | 0.00 | 55 | 1010.4 |
| 20260510080517 | 65 | 190 | 5.0 | 10.0 | 0.00 | 0.00 | 0.00 | 55 | 1010.3 |
| 20260510080003 | 65 | 188 | 6.0 | 12.0 | 0.00 | 0.00 | 0.00 | 55 | 1010.2 |
| 20260510075503 | 65 | 186 | 5.0 | 12.0 | 0.00 | 0.00 | 0.00 | 55 | 1010.3 |
| 20260510075003 | 65 | 177 | 5.0 | 12.0 | 0.00 | 0.00 | 0.00 | 57 | 1010.2 |
| 20260510074503 | 65 | 186 | 5.0 | 12.0 | 0.00 | 0.00 | 0.00 | 57 | 1010.1 |
| 20260510074003 | 65 | 188 | 6.0 | 16.0 | 0.00 | 0.00 | 0.00 | 56 | 1010.1 |
| 20260510073503 | 65 | 182 | 6.0 | 16.0 | 0.00 | 0.00 | 0.00 | 57 | 1010.1 |
| 20260510073003 | 65 | 186 | 6.0 | 13.0 | 0.00 | 0.00 | 0.00 | 58 | 1009.8 |
| 20260510072503 | 65 | 195 | 7.0 | 16.0 | 0.00 | 0.00 | 0.00 | 58 | 1009.8 |
| 20260510072003 | 65 | 195 | 7.0 | 16.0 | 0.00 | 0.00 | 0.00 | 57 | 1009.8 |
| 20260510071504 | 64 | 183 | 8.0 | 17.0 | 0.00 | 0.00 | 0.00 | 58 | 1009.7 |
| 20260510071003 | 64 | 177 | 8.0 | 17.0 | 0.00 | 0.00 | 0.00 | 58 | 1009.6 |
| 20260510070503 | 64 | 176 | 7.0 | 16.0 | 0.00 | 0.00 | 0.00 | 59 | 1009.6 |
| 20260510070003 | 64 | 188 | 7.0 | 14.0 | 0.00 | 0.00 | 0.00 | 60 | 1009.4 |
| 20260510065503 | 64 | 183 | 7.0 | 18.0 | 0.00 | 0.00 | 0.00 | 60 | 1009.3 |
| 20260510065003 | 64 | 172 | 7.0 | 18.0 | 0.00 | 0.00 | 0.00 | 61 | 1009.4 |
| 20260510064503 | 64 | 186 | 6.0 | 14.0 | 0.00 | 0.00 | 0.00 | 60 | 1009.3 |
| 20260510064003 | 64 | 185 | 6.0 | 14.0 | 0.00 | 0.00 | 0.00 | 61 | 1009.3 |
| 20260510063503 | 64 | 185 | 7.0 | 14.0 | 0.00 | 0.00 | 0.00 | 61 | 1009.2 |
| 20260510063003 | 64 | 204 | 7.0 | 15.0 | 0.00 | 0.00 | 0.00 | 60 | 1009.4 |
| 20260510062503 | 63 | 201 | 6.0 | 15.0 | 0.00 | 0.00 | 0.00 | 61 | 1009.1 |
| 20260510062017 | 63 | 184 | 4.0 | 10.0 | 0.00 | 0.00 | 0.00 | 62 | 1009.1 |
| 20260510061517 | 62 | 183 | 5.0 | 12.0 | 0.00 | 0.00 | 0.00 | 62 | 1008.9 |
| 20260510061017 | 62 | 189 | 5.0 | 12.0 | 0.00 | 0.00 | 0.00 | 62 | 1009.0 |
| 20260510060517 | 62 | 186 | 5.0 | 12.0 | 0.00 | 0.00 | 0.00 | 62 | 1008.9 |
| 20260510060003 | 62 | 190 | 6.0 | 15.0 | 0.00 | 0.00 | 0.00 | 61 | 1008.8 |
| 20260510055517 | 63 | 195 | 6.0 | 15.0 | 0.00 | 0.00 | 0.00 | 61 | 1008.7 |
| 20260510055003 | 63 | 193 | 7.0 | 14.0 | 0.00 | 0.00 | 0.00 | 62 | 1008.7 |
| 20260510054503 | 63 | 192 | 7.0 | 14.0 | 0.00 | 0.00 | 0.00 | 61 | 1008.6 |
| 20260510054017 | 63 | 183 | 7.0 | 13.0 | 0.00 | 0.00 | 0.00 | 61 | 1008.6 |
| 20260510053503 | 63 | 190 | 7.0 | 15.0 | 0.00 | 0.00 | 0.00 | 61 | 1008.6 |
| 20260510053003 | 63 | 201 | 7.0 | 15.0 | 0.00 | 0.00 | 0.00 | 61 | 1008.6 |
| 20260510052503 | 63 | 207 | 6.0 | 13.0 | 0.00 | 0.00 | 0.00 | 62 | 1008.6 |
| 20260510052017 | 62 | 196 | 5.0 | 10.0 | 0.00 | 0.00 | 0.00 | 63 | 1008.7 |
| 20260510051503 | 62 | 194 | 6.0 | 12.0 | 0.00 | 0.00 | 0.00 | 63 | 1008.6 |
| 20260510051003 | 63 | 194 | 7.0 | 14.0 | 0.00 | 0.00 | 0.00 | 63 | 1008.4 |
| 20260510050503 | 63 | 190 | 7.0 | 14.0 | 0.00 | 0.00 | 0.00 | 63 | 1008.4 |
| 20260510050003 | 62 | 199 | 7.0 | 12.0 | 0.00 | 0.00 | 0.00 | 63 | 1008.5 |
| 20260510045503 | 62 | 208 | 6.0 | 12.0 | 0.00 | 0.00 | 0.00 | 65 | 1008.5 |
| 20260510045003 | 62 | 203 | 4.0 | 8.0 | 0.00 | 0.00 | 0.00 | 66 | 1008.5 |
| 20260510044517 | 62 | 205 | 4.0 | 8.0 | 0.00 | 0.00 | 0.00 | 66 | 1008.4 |
| 20260510044003 | 62 | 217 | 3.0 | 6.0 | 0.00 | 0.00 | 0.00 | 66 | 1008.5 |
| 20260510043503 | 62 | 196 | 3.0 | 9.0 | 0.00 | 0.00 | 0.00 | 65 | 1008.6 |
| 20260510043017 | 62 | 189 | 4.0 | 9.0 | 0.00 | 0.00 | 0.00 | 65 | 1008.5 |
| 20260510042503 | 62 | 200 | 5.0 | 8.0 | 0.00 | 0.00 | 0.00 | 64 | 1008.6 |
| 20260510042003 | 63 | 194 | 6.0 | 11.0 | 0.00 | 0.00 | 0.00 | 63 | 1008.6 |
| 20260510041503 | 63 | 199 | 6.0 | 16.0 | 0.00 | 0.00 | 0.00 | 62 | 1008.6 |
| 20260510041003 | 63 | 197 | 6.0 | 16.0 | 0.00 | 0.00 | 0.00 | 63 | 1008.7 |
| 20260510040503 | 63 | 186 | 6.0 | 11.0 | 0.00 | 0.00 | 0.00 | 63 | 1008.7 |
| 20260510040003 | 63 | 180 | 7.0 | 14.0 | 0.00 | 0.00 | 0.00 | 64 | 1008.6 |
| 20260510035503 | 63 | 173 | 6.0 | 15.0 | 0.00 | 0.00 | 0.00 | 63 | 1008.6 |
| 20260510035003 | 63 | 182 | 5.0 | 15.0 | 0.00 | 0.00 | 0.00 | 63 | 1008.7 |
| 20260510034517 | 63 | 194 | 5.0 | 9.0 | 0.00 | 0.00 | 0.00 | 63 | 1008.8 |
| 20260510034017 | 63 | 205 | 4.0 | 9.0 | 0.00 | 0.00 | 0.00 | 63 | 1008.7 |
| 20260510033503 | 63 | 204 | 4.0 | 8.0 | 0.00 | 0.00 | 0.00 | 63 | 1008.7 |
| 20260510033017 | 63 | 188 | 4.0 | 10.0 | 0.00 | 0.00 | 0.00 | 63 | 1008.6 |
| 20260510032503 | 63 | 189 | 4.0 | 10.0 | 0.00 | 0.00 | 0.00 | 63 | 1008.6 |
| 20260510032003 | 63 | 199 | 4.0 | 10.0 | 0.00 | 0.00 | 0.00 | 63 | 1008.6 |
| 20260510031517 | 64 | 198 | 4.0 | 10.0 | 0.00 | 0.00 | 0.00 | 64 | 1008.6 |
| 20260510031003 | 64 | 187 | 5.0 | 10.0 | 0.00 | 0.00 | 0.00 | 63 | 1008.6 |
| 20260510030503 | 64 | 186 | 5.0 | 9.0 | 0.00 | 0.00 | 0.00 | 63 | 1008.6 |
| 20260510030017 | 64 | 203 | 5.0 | 9.0 | 0.00 | 0.00 | 0.00 | 64 | 1008.6 |
| 20260510025503 | 64 | 204 | 5.0 | 10.0 | 0.00 | 0.00 | 0.00 | 64 | 1008.7 |
| 20260510025017 | 64 | 214 | 4.0 | 10.0 | 0.00 | 0.00 | 0.00 | 64 | 1008.4 |
| 20260510024517 | 64 | 217 | 4.0 | 9.0 | 0.00 | 0.00 | 0.00 | 64 | 1008.6 |
| 20260510024003 | 64 | 196 | 4.0 | 10.0 | 0.00 | 0.00 | 0.00 | 63 | 1008.5 |
| 20260510023517 | 64 | 187 | 5.0 | 11.0 | 0.00 | 0.00 | 0.00 | 63 | 1008.5 |
| 20260510023017 | 64 | 202 | 5.0 | 11.0 | 0.00 | 0.00 | 0.00 | 63 | 1008.4 |
| 20260510022503 | 64 | 224 | 3.0 | 10.0 | 0.00 | 0.00 | 0.00 | 63 | 1008.6 |
| 20260510022017 | 64 | 190 | 3.0 | 10.0 | 0.00 | 0.00 | 0.00 | 63 | 1008.5 |
| 20260510021503 | 64 | 188 | 4.0 | 8.0 | 0.00 | 0.00 | 0.00 | 63 | 1008.7 |
| 20260510021003 | 64 | 178 | 5.0 | 11.0 | 0.00 | 0.00 | 0.00 | 63 | 1008.7 |
| 20260510020503 | 64 | 174 | 6.0 | 11.0 | 0.00 | 0.00 | 0.00 | 62 | 1008.8 |
| 20260510020003 | 64 | 199 | 5.0 | 11.0 | 0.00 | 0.00 | 0.00 | 63 | 1008.6 |
| 20260510015503 | 64 | 208 | 4.0 | 10.0 | 0.00 | 0.00 | 0.00 | 64 | 1008.7 |
| 20260510015003 | 64 | 195 | 5.0 | 9.0 | 0.00 | 0.00 | 0.00 | 64 | 1008.7 |
| 20260510014503 | 64 | 192 | 6.0 | 11.0 | 0.00 | 0.00 | 0.00 | 63 | 1008.6 |
| 20260510014003 | 64 | 187 | 6.0 | 12.0 | 0.00 | 0.00 | 0.00 | 63 | 1008.5 |
| 20260510013503 | 64 | 182 | 5.0 | 12.0 | 0.00 | 0.00 | 0.00 | 63 | 1008.6 |
| 20260510013003 | 64 | 178 | 5.0 | 11.0 | 0.00 | 0.00 | 0.00 | 63 | 1008.6 |
| 20260510012503 | 64 | 184 | 5.0 | 11.0 | 0.00 | 0.00 | 0.00 | 63 | 1008.7 |
| 20260510012003 | 64 | 183 | 5.0 | 11.0 | 0.00 | 0.00 | 0.00 | 63 | 1008.7 |
| 20260510011503 | 64 | 176 | 6.0 | 12.0 | 0.00 | 0.00 | 0.00 | 62 | 1008.7 |
| 20260510011003 | 64 | 180 | 6.0 | 12.0 | 0.00 | 0.00 | 0.00 | 62 | 1008.8 |
| 20260510010517 | 64 | 183 | 6.0 | 16.0 | 0.00 | 0.00 | 0.00 | 62 | 1008.8 |
| 20260510010003 | 65 | 185 | 7.0 | 16.0 | 0.00 | 0.00 | 0.00 | 62 | 1008.7 |
| 20260510005503 | 65 | 185 | 8.0 | 17.0 | 0.00 | 0.00 | 0.00 | 61 | 1008.8 |
| 20260510005003 | 65 | 184 | 8.0 | 18.0 | 0.00 | 0.00 | 0.00 | 61 | 1008.8 |
| 20260510004503 | 65 | 189 | 7.0 | 18.0 | 0.00 | 0.00 | 0.00 | 62 | 1008.8 |
| 20260510004003 | 65 | 200 | 7.0 | 14.0 | 0.00 | 0.00 | 0.00 | 62 | 1008.8 |
| 20260510003503 | 65 | 183 | 7.0 | 16.0 | 0.00 | 0.00 | 0.00 | 61 | 1008.7 |
| 20260510003003 | 65 | 178 | 8.0 | 16.0 | 0.00 | 0.00 | 0.00 | 61 | 1008.6 |
| 20260510002517 | 65 | 179 | 7.0 | 15.0 | 0.00 | 0.00 | 0.00 | 61 | 1008.7 |
| 20260510002003 | 65 | 175 | 8.0 | 15.0 | 0.00 | 0.00 | 0.00 | 61 | 1008.6 |
| 20260510001503 | 65 | 181 | 7.0 | 16.0 | 0.00 | 0.00 | 0.00 | 60 | 1008.7 |
| 20260510001003 | 65 | 179 | 7.0 | 16.0 | 0.00 | 0.00 | 0.00 | 59 | 1008.7 |
| 20260510000503 | 66 | 182 | 7.0 | 14.0 | 0.00 | 0.00 | 0.00 | 59 | 1008.7 |
| 20260510000003 | 66 | 187 | 7.0 | 17.0 | 0.00 | 0.00 | 0.00 | 58 | 1008.7 |
| 20260509235503 | 66 | 184 | 7.0 | 17.0 | 0.00 | 0.00 | 0.00 | 58 | 1008.8 |
| 20260509235003 | 66 | 177 | 7.0 | 19.0 | 0.00 | 0.00 | 0.00 | 58 | 1008.7 |
| 20260509234503 | 66 | 186 | 7.0 | 19.0 | 0.00 | 0.00 | 0.00 | 58 | 1008.8 |
| 20260509234003 | 66 | 203 | 7.0 | 14.0 | 0.00 | 0.00 | 0.00 | 58 | 1008.8 |
| 20260509233517 | 66 | 195 | 7.0 | 14.0 | 0.00 | 0.00 | 0.00 | 58 | 1008.7 |
| 20260509233003 | 66 | 181 | 7.0 | 16.0 | 0.00 | 0.00 | 0.00 | 58 | 1008.6 |
| 20260509232503 | 66 | 179 | 6.0 | 16.0 | 0.00 | 0.00 | 0.00 | 59 | 1008.8 |
| 20260509232003 | 66 | 176 | 7.0 | 13.0 | 0.00 | 0.00 | 0.00 | 59 | 1008.9 |
| 20260509231503 | 66 | 173 | 7.0 | 12.0 | 0.00 | 0.00 | 0.00 | 60 | 1008.8 |
| 20260509231017 | 66 | 172 | 6.0 | 13.0 | 0.00 | 0.00 | 0.00 | 60 | 1008.8 |
| 20260509230503 | 66 | 173 | 6.0 | 13.0 | 0.00 | 0.00 | 0.00 | 60 | 1008.8 |
| 20260509230017 | 66 | 176 | 5.0 | 12.0 | 0.00 | 0.00 | 0.00 | 60 | 1008.9 |
| 20260509225517 | 66 | 182 | 4.0 | 11.0 | 0.00 | 0.00 | 0.00 | 59 | 1009.0 |
| 20260509225003 | 66 | 175 | 5.0 | 16.0 | 0.00 | 0.00 | 0.00 | 59 | 1009.0 |
| 20260509224503 | 66 | 166 | 6.0 | 16.0 | 0.00 | 0.00 | 0.00 | 59 | 1009.0 |
| 20260509224003 | 66 | 170 | 5.0 | 15.0 | 0.00 | 0.00 | 0.00 | 59 | 1009.0 |
| 20260509223503 | 66 | 175 | 5.0 | 15.0 | 0.00 | 0.00 | 0.00 | 59 | 1009.1 |
| 20260509223017 | 66 | 167 | 3.0 | 9.0 | 0.00 | 0.00 | 0.00 | 60 | 1009.2 |
| 20260509222503 | 66 | 159 | 4.0 | 11.0 | 0.00 | 0.00 | 0.00 | 59 | 1009.2 |
| 20260509222003 | 66 | 161 | 4.0 | 11.0 | 0.00 | 0.00 | 0.00 | 59 | 1009.2 |
| 20260509221503 | 66 | 158 | 4.0 | 10.0 | 0.00 | 0.00 | 0.00 | 59 | 1009.2 |
| 20260509221003 | 66 | 175 | 4.0 | 11.0 | 0.00 | 0.00 | 0.00 | 60 | 1009.2 |
| 20260509220503 | 65 | 201 | 4.0 | 11.0 | 0.00 | 0.00 | 0.00 | 61 | 1009.3 |
| 20260509220017 | 65 | 236 | 3.0 | 10.0 | 0.00 | 0.00 | 0.00 | 61 | 1009.2 |
| 20260509215503 | 66 | 277 | 1.0 | 9.0 | 0.00 | 0.00 | 0.00 | 60 | 1009.3 |
| 20260509215003 | 66 | 257 | 1.0 | 4.0 | 0.00 | 0.00 | 0.00 | 59 | 1009.2 |
| 20260509214503 | 66 | 253 | 0.0 | 2.0 | 0.00 | 0.00 | 0.00 | 59 | 1009.3 |
| 20260509214017 | 66 | 253 | 1.0 | 2.0 | 0.00 | 0.00 | 0.00 | 58 | 1009.2 |
| 20260509213503 | 67 | 252 | 1.0 | 3.0 | 0.00 | 0.00 | 0.00 | 58 | 1009.2 |
| 20260509213003 | 67 | 229 | 1.0 | 5.0 | 0.00 | 0.00 | 0.00 | 58 | 1009.2 |
| 20260509212503 | 67 | 247 | 2.0 | 5.0 | 0.00 | 0.00 | 0.00 | 58 | 1009.3 |
| 20260509212003 | 67 | 256 | 2.0 | 7.0 | 0.00 | 0.00 | 0.00 | 58 | 1009.2 |
| 20260509211503 | 67 | 219 | 3.0 | 7.0 | 0.00 | 0.00 | 0.00 | 57 | 1009.1 |
| 20260509211003 | 67 | 184 | 4.0 | 10.0 | 0.00 | 0.00 | 0.00 | 57 | 1009.1 |
| 20260509210503 | 67 | 203 | 5.0 | 11.0 | 0.00 | 0.00 | 0.00 | 57 | 1009.1 |
| 20260509210003 | 67 | 226 | 3.0 | 11.0 | 0.00 | 0.00 | 0.00 | 57 | 1009.2 |
| 20260509205517 | 67 | 195 | 1.0 | 9.0 | 0.00 | 0.00 | 0.00 | 58 | 1009.1 |
| 20260509205003 | 67 | 200 | 1.0 | 6.0 | 0.00 | 0.00 | 0.00 | 58 | 1009.1 |
| 20260509204503 | 67 | 193 | 2.0 | 6.0 | 0.00 | 0.00 | 0.00 | 58 | 1009.2 |
| 20260509204003 | 67 | 190 | 2.0 | 4.0 | 0.00 | 0.00 | 0.00 | 58 | 1009.2 |
| 20260509203503 | 67 | 186 | 2.0 | 12.0 | 0.00 | 0.00 | 0.00 | 58 | 1009.2 |
| 20260509203003 | 67 | 167 | 3.0 | 12.0 | 0.00 | 0.00 | 0.00 | 57 | 1009.0 |
| 20260509202503 | 68 | 120 | 2.0 | 5.0 | 0.00 | 0.00 | 0.00 | 58 | 1009.0 |
| 20260509202003 | 68 | 108 | 1.0 | 4.0 | 0.00 | 0.00 | 0.00 | 57 | 1008.9 |
| 20260509201517 | 68 | 267 | 0.0 | 3.0 | 0.00 | 0.00 | 0.00 | 57 | 1008.9 |
| 20260509201003 | 68 | 217 | 1.0 | 3.0 | 0.00 | 0.00 | 0.00 | 57 | 1009.0 |
| 20260509200503 | 68 | 167 | 2.0 | 8.0 | 0.00 | 0.00 | 0.00 | 56 | 1008.8 |
| 20260509200017 | 69 | 134 | 3.0 | 8.0 | 0.00 | 0.00 | 0.00 | 56 | 1008.8 |
| 20260509195503 | 69 | 124 | 3.0 | 8.0 | 0.00 | 0.00 | 0.00 | 55 | 1008.8 |
| 20260509195003 | 69 | 151 | 3.0 | 9.0 | 0.00 | 0.00 | 0.00 | 55 | 1008.7 |
| 20260509194517 | 69 | 145 | 3.0 | 9.0 | 0.00 | 0.00 | 0.00 | 55 | 1008.7 |
| 20260509194003 | 69 | 121 | 2.0 | 7.0 | 0.00 | 0.00 | 0.00 | 54 | 1008.7 |
| 20260509193503 | 69 | 120 | 2.0 | 9.0 | 0.00 | 0.00 | 0.00 | 53 | 1008.8 |
| 20260509193003 | 70 | 126 | 2.0 | 9.0 | 0.00 | 0.00 | 0.00 | 53 | 1008.7 |
| 20260509192503 | 70 | 138 | 2.0 | 7.0 | 0.00 | 0.00 | 0.00 | 53 | 1008.7 |
| 20260509192003 | 70 | 153 | 4.0 | 10.0 | 0.00 | 0.00 | 0.00 | 52 | 1008.8 |
| 20260509191503 | 70 | 161 | 4.0 | 11.0 | 0.00 | 0.00 | 0.00 | 52 | 1008.8 |
| 20260509191017 | 70 | 159 | 4.0 | 11.0 | 0.00 | 0.00 | 0.00 | 52 | 1008.7 |
| 20260509190503 | 70 | 149 | 2.0 | 6.0 | 0.00 | 0.00 | 0.00 | 52 | 1008.6 |
| 20260509190003 | 70 | 134 | 1.0 | 4.0 | 0.00 | 0.00 | 0.00 | 52 | 1008.6 |
| 20260509185517 | 70 | 141 | 3.0 | 14.0 | 0.00 | 0.00 | 0.00 | 52 | 1008.5 |
| 20260509185003 | 70 | 140 | 3.0 | 14.0 | 0.00 | 0.00 | 0.00 | 52 | 1008.5 |
| 20260509184503 | 69 | 120 | 2.0 | 7.0 | 0.00 | 0.00 | 0.00 | 55 | 1008.6 |
| 20260509184017 | 69 | 164 | 3.0 | 7.0 | 0.00 | 0.00 | 0.00 | 55 | 1008.4 |
| 20260509183503 | 70 | 180 | 2.0 | 7.0 | 0.00 | 0.00 | 0.00 | 55 | 1008.4 |
| 20260509183003 | 70 | 3 | 1.0 | 3.0 | 0.00 | 0.00 | 0.00 | 56 | 1008.4 |
| 20260509182503 | 70 | 350 | 1.0 | 5.0 | 0.00 | 0.00 | 0.00 | 58 | 1008.4 |
| 20260509182003 | 70 | 343 | 1.0 | 5.0 | 0.00 | 0.00 | 0.00 | 54 | 1008.3 |
| 20260509181503 | 70 | 331 | 0.0 | 4.0 | 0.00 | 0.00 | 0.00 | 58 | 1008.4 |
| 20260509181003 | 70 | 311 | 0.0 | 3.0 | 0.00 | 0.00 | 0.00 | 57 | 1008.3 |
| 20260509180503 | 70 | 310 | 1.0 | 4.0 | 0.00 | 0.00 | 0.00 | 57 | 1008.3 |
| 20260509180003 | 70 | 310 | 1.0 | 4.0 | 0.00 | 0.00 | 0.00 | 57 | 1008.3 |
| 20260509175503 | 70 | 309 | 1.0 | 2.0 | 0.00 | 0.00 | 0.00 | 57 | 1008.2 |
| 20260509175003 | 70 | 309 | 1.0 | 4.0 | 0.00 | 0.00 | 0.00 | 57 | 1008.1 |
| 20260509174503 | 71 | 305 | 1.0 | 4.0 | 0.00 | 0.00 | 0.00 | 55 | 1008.1 |
| 20260509174003 | 71 | 295 | 2.0 | 4.0 | 0.00 | 0.00 | 0.00 | 56 | 1008.0 |
| 20260509173503 | 71 | 252 | 1.0 | 4.0 | 0.00 | 0.00 | 0.00 | 54 | 1008.0 |
| 20260509173017 | 71 | 188 | 1.0 | 3.0 | 0.00 | 0.01 | 0.00 | 54 | 1007.9 |
| 20260509172517 | 71 | 188 | 1.0 | 2.0 | 0.00 | 0.02 | 0.00 | 53 | 1007.9 |
| 20260509172017 | 71 | 187 | 1.0 | 2.0 | 0.00 | 0.03 | 0.00 | 54 | 1008.0 |
| 20260509171503 | 71 | 186 | 1.0 | 2.0 | 0.00 | 0.04 | 0.00 | 52 | 1007.9 |
| 20260509171017 | 71 | 184 | 1.0 | 3.0 | 0.00 | 0.04 | 0.00 | 52 | 1007.8 |
| 20260509170503 | 71 | 184 | 2.0 | 8.0 | 0.00 | 0.04 | 0.00 | 51 | 1007.7 |
| 20260509170003 | 71 | 208 | 3.0 | 8.0 | 0.00 | 0.04 | 0.00 | 50 | 1007.7 |
| 20260509165503 | 71 | 207 | 4.0 | 7.0 | 0.00 | 0.04 | 0.00 | 50 | 1007.6 |
| 20260509165003 | 71 | 179 | 3.0 | 7.0 | 0.00 | 0.04 | 0.00 | 52 | 1007.6 |
| 20260509164517 | 71 | 178 | 3.0 | 8.0 | 0.00 | 0.04 | 0.00 | 51 | 1007.7 |
| 20260509164003 | 71 | 179 | 4.0 | 8.0 | 0.00 | 0.04 | 0.00 | 51 | 1007.7 |
| 20260509163503 | 71 | 170 | 4.0 | 9.0 | 0.00 | 0.04 | 0.00 | 51 | 1007.7 |
| 20260509163017 | 71 | 177 | 5.0 | 10.0 | 0.00 | 0.04 | 0.00 | 50 | 1007.7 |
| 20260509162503 | 71 | 193 | 5.0 | 10.0 | 0.00 | 0.04 | 0.00 | 50 | 1007.6 |
| 20260509162003 | 71 | 184 | 5.0 | 10.0 | 0.00 | 0.04 | 0.00 | 50 | 1007.7 |
| 20260509161503 | 71 | 197 | 5.0 | 10.0 | 0.00 | 0.04 | 0.00 | 50 | 1007.7 |
| 20260509161003 | 71 | 200 | 5.0 | 10.0 | 0.00 | 0.04 | 0.00 | 50 | 1007.9 |
| 20260509160503 | 71 | 174 | 6.0 | 15.0 | 0.00 | 0.04 | 0.00 | 49 | 1007.9 |
| 20260509160003 | 71 | 162 | 6.0 | 15.0 | 0.00 | 0.04 | 0.00 | 49 | 1007.9 |
| 20260509155517 | 71 | 165 | 6.0 | 13.0 | 0.00 | 0.04 | 0.00 | 50 | 1007.8 |
| 20260509155003 | 72 | 174 | 6.0 | 13.0 | 0.00 | 0.04 | 0.00 | 49 | 1007.9 |
| 20260509154517 | 72 | 169 | 6.0 | 11.0 | 0.00 | 0.04 | 0.00 | 49 | 1007.9 |
| 20260509154003 | 72 | 162 | 5.0 | 12.0 | 0.00 | 0.04 | 0.00 | 49 | 1007.8 |
| 20260509153503 | 72 | 154 | 5.0 | 12.0 | 0.00 | 0.04 | 0.00 | 50 | 1007.9 |
| 20260509153003 | 72 | 161 | 5.0 | 11.0 | 0.00 | 0.04 | 0.00 | 49 | 1007.8 |
| 20260509152503 | 72 | 177 | 5.0 | 10.0 | 0.00 | 0.04 | 0.00 | 50 | 1008.0 |
| 20260509152003 | 72 | 167 | 5.0 | 12.0 | 0.00 | 0.04 | 0.00 | 49 | 1007.8 |
| 20260509151503 | 72 | 162 | 6.0 | 13.0 | 0.00 | 0.04 | 0.00 | 49 | 1007.9 |
| 20260509151017 | 72 | 166 | 6.0 | 13.0 | 0.00 | 0.04 | 0.00 | 48 | 1008.0 |
| 20260509150503 | 72 | 170 | 6.0 | 13.0 | 0.00 | 0.04 | 0.00 | 48 | 1008.1 |
| 20260509150003 | 72 | 160 | 5.0 | 12.0 | 0.00 | 0.04 | 0.00 | 49 | 1008.1 |
| 20260509145517 | 72 | 142 | 4.0 | 12.0 | 0.00 | 0.04 | 0.00 | 49 | 1008.0 |
| 20260509145017 | 72 | 160 | 5.0 | 11.0 | 0.00 | 0.04 | 0.00 | 50 | 1008.0 |
| 20260509144503 | 72 | 173 | 6.0 | 14.0 | 0.00 | 0.04 | 0.00 | 50 | 1008.0 |
| 20260509144003 | 72 | 168 | 6.0 | 14.0 | 0.00 | 0.04 | 0.00 | 49 | 1008.3 |
| 20260509143503 | 72 | 161 | 5.0 | 12.0 | 0.00 | 0.04 | 0.00 | 49 | 1008.2 |
| 20260509143003 | 72 | 160 | 5.0 | 16.0 | 0.00 | 0.04 | 0.00 | 50 | 1008.1 |
| 20260509142503 | 71 | 161 | 6.0 | 16.0 | 0.00 | 0.04 | 0.00 | 52 | 1008.2 |